Weather History for Shawano, WI

Change the Weather History Date:

Sunday, May 26, 2013

  Actual Average (KGRB) Record (KGRB)
Temperature  
Mean Temperature 52 °F 58 °F  
Max Temperature 66 °F 69 °F 88 °F (1978)
Min Temperature 39 °F 47 °F 31 °F (1969)
Degree Days  
Heating Degree Days 12 8  
Month to date heating degree days 292  
Since 1 July heating degree days 7829  
Cooling Degree Days 0 1  
Month to date cooling degree days 9  
Year to date cooling degree days 11  
Growing Degree Days 2 (Base 50)    
Moisture  
Dew Point 39 °F    
Average Humidity 61    
Maximum Humidity 100    
Minimum Humidity 32    
Precipitation  
Precipitation 0.00 in 0.11 in 0.86 in (2009)
Month to date precipitation 2.36  
Year to date precipitation 9.08  
Snow  
Snow 0.00 in 0.00 in T in (1907)
Month to date snowfall 0.2  
Since 1 July snowfall 51.4  
Snow Depth -    
Sea Level Pressure  
Sea Level Pressure 30.29 in    
Wind  
Wind Speed 4 mph (East)    
Max Wind Speed 13 mph    
Max Gust Speed 17 mph    
Visibility 10 miles    
Events      
T = Trace of Precipitation, MM = Missing Value Source: NWS Daily Summary

Daily Weather History Graph

Daily Weather History Graph

Search for Another Location

Airport:

Trip Planner

Search our weather history database for the weather conditions in past years. The results will help you decide how hot, cold, wet, or windy it might be!

Date:

Astronomy

May. 26, 2013 Rise Set
Actual Time 5:15 AM CDT 8:27 PM CDT
Civil Twilight 4:39 AM CDT 9:03 PM CDT
Nautical Twilight 3:53 AM CDT 9:49 PM CDT
Astronomical Twilight 2:57 AM CDT 10:46 PM CDT
Moon 10:13 PM CDT (5/26) 6:45 AM CDT (5/26)
Length of Visible Light 16h 23m
Length of Day
15h 12m
Waning Gibbous, 96% of the Moon is Illuminated
May 26
Waning Gibbous
May 31
Last Quarter
Jun 8
New
Jun 16
First Quarter
Jun 23
Full

Hourly Weather History & Observations

Time (CDT) Temp. Windchill Dew Point Humidity Pressure Visibility Wind Dir Wind Speed Gust Speed Precip Events Conditions
12:15 AM 44.6 °F - 37.4 °F 76% 30.33 in 10.0 mi Calm Calm - N/A   Clear
12:35 AM 44.6 °F - 37.4 °F 76% 30.33 in 10.0 mi Calm Calm - N/A   Clear
12:55 AM 42.8 °F - 37.4 °F 81% 30.33 in 10.0 mi Calm Calm - N/A   Clear
1:15 AM 42.8 °F - 37.4 °F 81% 30.33 in 10.0 mi Calm Calm - N/A   Clear
1:35 AM 42.8 °F - 39.2 °F 87% 30.33 in 10.0 mi Calm Calm - N/A   Clear
1:55 AM 42.8 °F - 39.2 °F 87% 30.34 in 10.0 mi Calm Calm - N/A   Clear
2:15 AM 42.8 °F - 39.2 °F 87% 30.33 in 10.0 mi Calm Calm - N/A   Clear
2:35 AM 41.0 °F - 37.4 °F 87% 30.32 in 10.0 mi Calm Calm - N/A   Clear
2:55 AM 41.0 °F - 37.4 °F 87% 30.31 in 10.0 mi Calm Calm - N/A   Clear
3:15 AM 42.8 °F - 39.2 °F 87% 30.31 in 10.0 mi Calm Calm - N/A   Clear
3:35 AM 42.8 °F - 41.0 °F 93% 30.31 in 7.0 mi Calm Calm - N/A   Clear
3:55 AM 42.8 °F - 41.0 °F 93% 30.32 in 10.0 mi Calm Calm - N/A   Clear
4:15 AM 41.0 °F - 39.2 °F 93% 30.31 in 7.0 mi Calm Calm - N/A   Clear
4:35 AM 41.0 °F - 41.0 °F 100% 30.31 in 2.5 mi Calm Calm - N/A   Clear
4:55 AM 41.0 °F - 39.2 °F 93% 30.32 in 10.0 mi Calm Calm - N/A   Clear
5:15 AM 39.2 °F - 37.4 °F 93% 30.32 in 10.0 mi Calm Calm - N/A   Clear
5:35 AM 41.0 °F 39.0 °F 37.4 °F 87% 30.33 in 10.0 mi NNE 3.5 mph - N/A   Clear
5:55 AM 41.0 °F 37.1 °F 37.4 °F 87% 30.34 in 10.0 mi NE 5.8 mph - N/A   Clear
6:15 AM 44.6 °F 41.4 °F 41.0 °F 87% 30.35 in 10.0 mi NE 5.8 mph - N/A   Clear
6:35 AM 46.4 °F 43.5 °F 41.0 °F 81% 30.35 in 10.0 mi NE 5.8 mph - N/A   Clear
6:55 AM 46.4 °F 41.9 °F 41.0 °F 81% 30.35 in 10.0 mi NE 9.2 mph - N/A   Clear
7:15 AM 48.2 °F - 41.0 °F 76% 30.35 in 10.0 mi ENE 8.1 mph - N/A   Clear
7:35 AM 50.0 °F - 41.0 °F 71% 30.34 in 10.0 mi East 6.9 mph - N/A   Clear
7:55 AM 51.8 °F - 41.0 °F 67% 30.34 in 10.0 mi ENE 6.9 mph - N/A   Clear
8:15 AM 51.8 °F - 41.0 °F 67% 30.35 in 10.0 mi ENE 4.6 mph - N/A   Clear
8:35 AM 53.6 °F - 41.0 °F 62% 30.35 in 10.0 mi ENE 6.9 mph - N/A   Clear
8:55 AM 55.4 °F - 41.0 °F 58% 30.35 in 10.0 mi East 6.9 mph - N/A   Clear
9:15 AM 57.2 °F - 37.4 °F 48% 30.35 in 10.0 mi East 9.2 mph - N/A   Clear
9:35 AM 59.0 °F - 37.4 °F 45% 30.34 in 10.0 mi East 10.4 mph - N/A   Clear
9:55 AM 59.0 °F - 37.4 °F 45% 30.33 in 10.0 mi East 9.2 mph - N/A   Clear
10:15 AM 60.8 °F - 35.6 °F 39% 30.33 in 10.0 mi East 10.4 mph - N/A   Clear
10:35 AM 60.8 °F - 33.8 °F 36% 30.33 in 10.0 mi East 10.4 mph 17.3 mph N/A   Clear
10:55 AM 62.6 °F - 33.8 °F 34% 30.33 in 10.0 mi East 12.7 mph 16.1 mph N/A   Clear
11:15 AM 62.6 °F - 33.8 °F 34% 30.33 in 10.0 mi East 12.7 mph - N/A   Clear
11:35 AM 62.6 °F - 32.0 °F 32% 30.32 in 10.0 mi East 10.4 mph - N/A   Clear
12:15 PM 64.4 °F - 35.6 °F 34% 30.31 in 10.0 mi East 12.7 mph - N/A   Clear
12:35 PM 64.4 °F - 35.6 °F 34% 30.31 in 10.0 mi ESE 10.4 mph 17.3 mph N/A   Clear
12:55 PM 64.4 °F - 33.8 °F 32% 30.31 in 10.0 mi SE 10.4 mph - N/A   Clear
1:15 PM 64.4 °F - 33.8 °F 32% 30.31 in 10.0 mi SE 10.4 mph - N/A   Clear
1:35 PM 64.4 °F - 35.6 °F 34% 30.30 in 10.0 mi East 9.2 mph - N/A   Clear
1:55 PM 66.2 °F - 37.4 °F 35% 30.29 in 10.0 mi East 9.2 mph - N/A   Clear
2:15 PM 64.4 °F - 37.4 °F 37% 30.29 in 10.0 mi East 11.5 mph - N/A   Clear
2:35 PM 64.4 °F - 37.4 °F 37% 30.28 in 10.0 mi East 10.4 mph - N/A   Clear
2:55 PM 64.4 °F - 37.4 °F 37% 30.28 in 10.0 mi East 8.1 mph 16.1 mph N/A   Clear
3:15 PM 64.4 °F - 37.4 °F 37% 30.27 in 10.0 mi ESE 8.1 mph - N/A   Clear
3:35 PM 64.4 °F - 37.4 °F 37% 30.27 in 10.0 mi SE 6.9 mph - N/A   Clear
3:55 PM 64.4 °F - 41.0 °F 42% 30.26 in 10.0 mi ESE 9.2 mph - N/A   Clear
4:15 PM 64.4 °F - 41.0 °F 42% 30.26 in 10.0 mi East 9.2 mph - N/A   Clear
4:35 PM 64.4 °F - 41.0 °F 42% 30.26 in 10.0 mi East 8.1 mph - N/A   Clear
4:55 PM 62.6 °F - 41.0 °F 45% 30.25 in 10.0 mi East 9.2 mph - N/A   Clear
5:15 PM 62.6 °F - 41.0 °F 45% 30.24 in 10.0 mi East 10.4 mph - N/A   Clear
5:35 PM 62.6 °F - 41.0 °F 45% 30.23 in 10.0 mi East 9.2 mph - N/A   Clear
5:55 PM 62.6 °F - 41.0 °F 45% 30.22 in 10.0 mi East 10.4 mph - N/A   Clear
6:15 PM 62.6 °F - 42.8 °F 48% 30.22 in 10.0 mi East 10.4 mph - N/A   Clear
6:35 PM 60.8 °F - 41.0 °F 48% 30.22 in 10.0 mi ESE 9.2 mph - N/A   Clear
6:55 PM 60.8 °F - 42.8 °F 52% 30.21 in 10.0 mi East 8.1 mph - N/A   Clear
7:15 PM 60.8 °F - 42.8 °F 52% 30.21 in 10.0 mi East 9.2 mph - N/A   Clear
7:35 PM 60.8 °F - 41.0 °F 48% 30.21 in 10.0 mi East 6.9 mph - N/A   Clear
7:55 PM 59.0 °F - 41.0 °F 51% 30.21 in 10.0 mi East 8.1 mph - N/A   Clear
8:15 PM 57.2 °F - 41.0 °F 55% 30.22 in 10.0 mi East 9.2 mph - N/A   Clear
8:35 PM 53.6 °F - 41.0 °F 62% 30.23 in 10.0 mi East 4.6 mph - N/A   Clear
8:55 PM 53.6 °F - 41.0 °F 62% 30.24 in 10.0 mi ESE 3.5 mph - N/A   Clear
9:15 PM 53.6 °F - 41.0 °F 62% 30.24 in 10.0 mi Calm Calm - N/A   Clear
9:35 PM 51.8 °F - 41.0 °F 67% 30.24 in 10.0 mi East 4.6 mph - N/A   Clear
9:55 PM 51.8 °F - 41.0 °F 67% 30.24 in 10.0 mi East 5.8 mph - N/A   Clear
10:15 PM 50.0 °F - 41.0 °F 71% 30.22 in 10.0 mi ESE 4.6 mph - N/A   Clear
10:35 PM 50.0 °F - 41.0 °F 71% 30.22 in 10.0 mi Calm Calm - N/A   Clear
10:55 PM 50.0 °F - 41.0 °F 71% 30.21 in 10.0 mi Calm Calm - N/A   Clear
11:15 PM 50.0 °F - 41.0 °F 71% 30.22 in 10.0 mi Calm Calm - N/A   Clear
11:35 PM 50.0 °F - 39.2 °F 66% 30.22 in 10.0 mi Calm Calm - N/A   Clear
11:55 PM 50.0 °F - 37.4 °F 62% 30.22 in 10.0 mi Calm Calm - N/A   Clear